COSMOS 729

Satellite information

Favourite Embed

Satellite Type and Status

PAYLOADIN ORBIT

Key statistics

Satellite COSMOS 729 at a glance.

Uptime

18452

Days in orbit

Revolutions

≈ 13.7

Per day

Orbit

LEO

Low Earth Orbit

Inclination

83.0

Latest

Satellite identification and parameters

Extended collection of information and parameters for COSMOS 729.

Object identification

Identified? True

Debris? False

Object name: COSMOS 729

International designator: 1975-034A

Object number (NORAD): 7768

Object ID (CCSDS): 7768

Country: COMMONWEALTH OF INDEPENDENT STATES (CIS)

Current information (Y/N): Y

RCS size: LARGE

Orbital parameters

Period: 104.833 minutes

Inclination: 82.9606 deg

SMA: 7364.75 km

Apoapsis: 1004.625 km

Periapsis: 968.605 km

RAAN: 302.1743 deg

Eccentricy: 0.00244538

Argument of periapsis: 92.8911 deg

Mean anomaly: 334.606 deg

Mean motion: 13.73617301 rev/day

Mean motion (dot): 0.00000061 rev/day2

B* drag term: 0.000048939372 1/REarth

Two-line elements (TLE)

Creation date: Oct. 27, 2025, 2:46 a.m.

Reference frame: TEME

Reference center: EARTH

Epoch: Oct. 26, 2025, 10:49 p.m. UTC

TLE line 0: 0 COSMOS 729

TLE line 1: 1 07768U 75034A 25299.95109903 .00000061 00000-0 48939-4 0 9994

TLE line 2: 2 07768 82.9606 302.1743 0024454 92.8911 334.6060 13.73617301531014

Live tracking on map

Real-time ground track for satellite COSMOS 729.

In-orbit conjunctions

A list of the most updated potential collisions computed for object COSMOS 729.

Target Orbit TCA Probability of collision Miss distance Type
CZ-6A DEB SSO 2025-07-07 10:24:24 0.0001200139 46.0 (m) DEBRIS
THORAD AGENA D DEB SSO 2024-09-28 12:42:25 0.0002636007 190.0 (m) DEBRIS

Associated space launch

The first soviet navigation system called Tsiklon consisted of Zaliv satellites in low earth orbit.

COSMOS 729 was lifted into orbit during the mission ‘Kosmos-3M | Zaliv 19’, on board a Kosmos-3M space rocket.

The launch took place on April 22, 1975, 9:10 p.m. from 132/1 (132L).

For more information about the launch, click the button.

Launch to space Kosmos-3M | Zaliv 19
Kosmos-3M | Zaliv 19

Agency: N/A

Status: Launch Successful

Launch date: April 22, 1975, 9:10 p.m. UTC

Rocket: Kosmos-3M

Launch pad: 132/1 (132L)

Location: Plesetsk Cosmodrome, Russian Federation

...

Latest news about this satellite

There are no fresh news available about this satellite. Check back as we update our databases every day.


Newsletter sign-up

Weekly statistics, charts and insights to help you stay on top of the space industry.